Regional Weather Roundup
Issued by NWS

Home | Current Version | Previous Version | Text Only | Print | Product List | Glossary Off
Versions: 1 2 3 4 5 6 7 8 9 10 11 12 13 14 15 16 17 18 19 20 21 22 23 24 25 26 27 28 29 30 31 32 33 34 35 36 37 38 39 40 41 42 43 44 45 46 47 48 49 50

000
ASUS43 KLMK 021202
RWRKY
KENTUCKY REGIONAL WEATHER ROUNDUP
NATIONAL WEATHER SERVICE LOUISVILLE KY
800 AM EDT MON MAY 02 2016

NOTE "FAIR" INDICATES FEW OR NO CLOUDS BELOW 12,000 FEET
WITH NO SIGNIFICANT WEATHER AND/OR OBSTRUCTIONS TO VISIBILITY.

KYZ001>023-026-027-061>063-070>075-021300-
WESTERN AND SOUTH CENTRAL KENTUCKY

CITY           SKY/WX    TMP DP  RH WIND       PRES   REMARKS
PADUCAH        CLOUDY    57  52  83 N5        30.04R
HENDERSON      PTSUNNY   55  50  82 W7        30.02R
OWENSBORO      SUNNY     57  53  86 NW9       30.03R
HOPKINSVILLE   PTSUNNY   58  53  83 N7        30.03R
BOWLING GREEN  CLOUDY    61  52  72 NW5       30.01R
GLASGOW        NOT AVBL
$$

KYZ024-025-028>034-038-045-046-053-021300-
NORTH CENTRAL KENTUCKY

CITY           SKY/WX    TMP DP  RH WIND       PRES   REMARKS
LOUISVILLE/SDF PTSUNNY   61  56  83 W7        29.99R
LOUISVILLE/LOU MOSUNNY   61  56  83 W13       30.00R
FORT KNOX      CLOUDY    57  55  93 W7        30.00R
$$

KYZ035>037-039>044-047>052-055>060-089>105-021300-
NORTHEAST KENTUCKY

CITY           SKY/WX    TMP DP  RH WIND       PRES   REMARKS
LEXINGTON      SUNNY     61  57  87 CALM      29.99R
COVINGTON      CLOUDY    59  57  93 W6        29.96R
FRANKFORT      SUNNY     60  55  83 W3        29.98R
$$

KYZ054-064>069-076>088-106>120-021300-
SOUTHEAST KENTUCKY

CITY           SKY/WX    TMP DP  RH WIND       PRES   REMARKS
JACKSON        PTSUNNY   66  62  87 CALM      30.00R
LONDON         CLOUDY    65  61  87 SW3       30.00S
SOMERSET       NOT AVBL
MIDDLESBORO    CLOUDY    63  63 100 CALM      30.03R
MONTICELLO     CLOUDY    66  63  90 W12       30.03R
$$





USA.gov is the U.S. government's official web portal to all federal, state and local government web resources and services.